Location: Newark
(49.8969°N, 3.3422°E)
Time: 01:00:19
(UTC+00:00)

Explorer 7 - Pass Details

Date: 29 January 2020
Orbit: 485 x 679 km, 50.3° (Epoch: 20 February)

Event Time Altitude Azimuth Distance (km) Brightness Sun altitude
Rises 21:14:26 0° 230° (SW) 2,598 - -44.1°
Reaches altitude 10° 21:16:44 10° 223° (SW) 1,696 - -44.4°
Maximum altitude 21:20:20 41° 153° (SSE) 723 - -44.9°
Drops below altitude 10° 21:23:52 10° 82° (E) 1,670 - -45.4°
Sets 21:26:06 0° 75° (ENE) 2,553 - -45.7°
